Wind_Speed
9 9 9 11 13 13 15 17 19 19 19 19 19 19 19 20 20 21 21 20 19 20 19 17 18 19 20 21 21 22 22 22 22 22 21 20 19 18 18 19 19 19
9 9 9 11 12 13 15 17 17 18 20 21 22 23 22 21 21 20 20 20 20 20 19 18 19 20 20 20 21 22 21 22 23 22 21 20 19 19 19 19 18 19
9 9 10 11 13 14 15 16 16 17 20 21 22 24 24 24 23 22 21 20 20 20 20 19 20 21 21 20 21 23 23 23 24 22 21 20 20 20 20 20 19 20
10 10 11 11 13 15 15 15 15 17 20 21 21 22 24 26 25 24 23 22 21 22 20 19 20 22 23 22 21 22 22 22 23 23 22 21 21 21 20 21 21 21
11 11 12 13 13 15 15 16 16 17 20 21 20 21 23 25 26 26 25 23 23 23 20 18 20 22 24 22 21 21 22 21 22 23 23 22 22 21 21 22 23 22
12 12 12 13 14 15 15 16 17 17 19 21 21 21 22 24 26 27 28 26 24 23 20 19 19 22 24 23 22 22 22 21 22 22 22 22 21 21 22 23 23 22
13 13 13 12 14 15 16 17 17 17 19 21 22 22 23 24 26 27 27 27 26 22 19 19 20 22 24 25 24 23 22 21 21 22 22 22 22 22 23 23 23 23
12 13 14 12 12 14 16 16 16 17 19 20 22 23 23 23 25 26 25 25 24 21 19 19 21 22 24 26 25 23 23 22 22 22 22 23 23 24 24 25 25 25
12 12 14 14 13 13 14 15 15 17 19 20 21 22 22 22 22 23 23 24 23 21 20 20 21 23 24 26 26 24 23 24 23 23 23 23 23 23 24 26 28 27
13 14 15 16 16 15 14 14 15 16 19 20 20 20 21 21 20 20 21 22 23 23 22 21 21 23 23 25 26 24 22 23 22 23 24 23 23 22 22 25 26 26
14 15 15 16 17 17 17 16 15 16 18 20 20 20 20 21 20 21 21 21 22 23 22 20 21 23 22 22 23 23 22 21 20 21 23 23 22 21 22 22 23 23
13 14 15 17 18 18 17 17 16 16 17 18 19 20 20 20 21 23 24 23 21 22 20 18 20 24 22 20 20 20 20 19 19 21 22 22 21 22 22 22 21 21
13 13 14 14 16 18 18 16 16 17 18 19 20 20 20 20 20 22 24 23 22 21 20 20 21 23 22 20 18 17 18 18 19 20 21 21 20 20 20 20 20 20
13 13 13 13 15 19 21 18 15 16 17 18 19 20 21 20 19 19 20 20 20 20 21 21 20 21 20 20 19 19 18 18 19 19 19 19 19 17 17 19 19 20
13 13 13 14 15 18 22 23 20 17 17 17 18 20 21 21 19 18 18 17 18 19 19 18 18 18 18 19 20 20 18 18 18 18 17 18 17 16 17 18 19 20
12 12 14 15 16 18 22 25 25 21 18 17 16 17 19 20 20 19 18 17 17 18 18 18 17 17 17 18 18 17 17 17 17 18 18 18 17 17 18 19 19 20
11 12 14 16 17 20 23 25 26 23 19 17 17 16 16 17 18 19 18 17 16 17 18 18 17 17 19 19 17 15 15 16 16 17 18 17 17 19 21 20 20 20
12 12 15 16 17 19 21 24 25 21 17 16 17 16 15 15 15 16 16 15 14 16 18 18 18 20 20 18 16 15 16 16 16 17 17 17 19 21 20 19 20 19
13 14 15 16 17 18 20 22 23 19 14 12 13 13 12 13 13 13 14 13 13 14 16 16 18 19 19 18 17 17 17 17 16 16 17 19 21 20 18 18 18 18
14 14 15 16 17 18 19 21 21 17 13 11 9 9 11 12 13 12 12 12 12 12 13 16 18 19 20 20 19 18 18 16 15 14 16 18 19 18 18 17 16 16
16 15 15 16 17 18 19 21 22 19 16 14 11 10 11 13 14 14 13 12 12 13 14 16 18 19 21 21 20 18 16 15 14 13 15 16 15 15 17 16 14 14
17 16 16 16 17 18 20 22 23 23 22 20 18 16 14 13 14 15 15 14 14 14 16 18 17 18 21 21 20 17 13 13 15 13 13 14 13 14 15 13 11 11
16 17 17 17 18 20 22 24 24 24 24 24 22 21 19 17 15 14 15 16 15 15 17 18 16 17 20 19 18 16 13 13 14 12 12 14 14 14 14 13 11 9
15 16 16 17 19 22 23 23 23 23 22 22 21 21 21 19 16 15 15 15 15 14 14 15 13 15 19 19 16 15 13 14 14 13 12 12 13 13 12 13 12 10
15 16 16 17 20 23 23 21 21 21 20 18 18 18 18 18 16 13 12 10 9 9 10 13 15 17 19 17 15 14 14 12 11 10 11 12 13 13 11 11 12 13
13 14 16 16 17 22 22 20 19 20 18 16 15 16 16 16 15 13 11 10 8 4 1 6 11 15 17 15 13 12 11 9 8 10 12 12 13 14 12 11 12 12
Wind_Direction
293 288 281 277 277 276 270 267 265 261 256 252 253 254 254 252 252 255 253 250 249 249 247 243 244 245 242 238 235 236 239 235 231 236 236 229 228 229 227 226 230 231
295 291 286 280 277 274 271 271 274 272 265 259 255 253 253 252 248 250 253 250 248 247 242 238 239 238 236 237 235 232 233 234 232 231 231 229 230 233 232 230 232 231
300 292 286 284 281 277 274 277 280 277 272 268 262 257 256 256 248 244 249 249 247 246 241 235 235 234 233 233 234 233 232 232 230 227 228 230 232 234 232 230 232 228
303 298 294 291 288 285 283 283 282 278 276 274 269 264 260 257 253 248 248 247 246 246 243 237 233 232 234 233 232 234 231 229 229 226 227 232 233 231 228 228 231 229
307 306 301 296 291 287 288 287 282 277 278 276 271 267 263 259 257 255 251 247 245 245 242 237 233 231 234 232 228 229 227 224 226 226 226 231 232 229 226 229 232 229
314 310 304 300 297 290 283 282 282 280 280 278 272 266 261 258 257 256 254 251 247 243 238 235 235 232 231 231 227 225 227 225 225 226 226 228 228 227 229 232 231 225
322 317 313 306 299 293 283 277 279 280 281 281 278 272 264 258 255 255 256 254 249 243 236 232 234 233 228 228 227 224 225 226 224 223 224 225 224 224 228 229 224 219
327 322 317 306 296 296 294 289 284 282 281 281 282 279 271 262 258 255 255 256 254 248 241 234 235 234 226 224 226 223 221 221 218 219 222 223 223 222 224 222 218 219
328 320 317 314 308 301 296 293 289 286 282 281 282 282 277 269 264 261 259 259 260 255 246 238 236 237 230 225 224 220 217 217 215 217 222 222 220 219 219 216 212 211
326 322 321 320 319 312 302 294 289 285 282 279 278 281 280 274 270 269 268 265 265 262 253 245 243 240 232 225 224 218 214 215 213 214 220 220 217 217 217 214 210 206
327 325 322 320 320 319 315 307 296 287 284 281 278 277 278 277 272 271 273 271 268 267 262 258 256 248 234 226 223 214 210 212 210 210 217 218 216 217 216 212 211 207
331 324 321 323 324 325 323 318 310 299 290 286 283 278 275 275 272 271 272 274 275 271 263 258 259 255 246 236 227 215 209 208 206 208 214 215 215 216 212 207 208 208
343 334 332 335 334 335 334 326 316 308 301 295 288 284 280 275 272 269 268 271 275 271 263 258 257 256 250 243 235 223 214 211 213 215 216 216 217 216 209 204 206 208
349 346 346 348 344 341 340 334 319 305 302 300 293 289 285 279 275 270 265 267 270 268 262 257 255 253 244 237 235 230 221 217 220 223 223 222 221 218 210 205 206 208
350 355 358 354 347 340 339 340 332 312 299 298 296 292 288 283 277 272 267 267 269 265 257 249 249 248 235 227 230 229 222 219 221 226 229 228 223 218 213 210 209 210
351 0 4 357 350 342 339 342 340 326 306 292 290 291 289 286 282 274 269 268 268 262 249 241 241 237 225 225 229 226 221 220 222 224 226 227 227 223 217 212 210 210
353 359 3 358 351 345 344 345 342 332 313 292 285 289 290 288 285 279 271 266 262 254 244 238 234 228 227 232 233 226 221 220 223 223 223 228 229 221 214 210 209 210
2 2 3 359 352 348 348 348 343 333 316 293 282 285 291 290 286 279 272 267 258 247 242 237 231 228 228 229 226 221 218 221 226 226 224 229 226 216 210 208 209 211
5 5 3 2 358 353 352 352 348 339 325 306 288 285 292 294 290 281 275 272 264 251 241 231 228 229 225 220 219 219 218 221 226 227 227 227 224 218 213 212 213 210
5 8 7 6 1 357 357 359 359 355 347 335 315 303 302 302 301 293 282 274 266 255 238 221 220 221 214 208 209 213 215 218 222 228 228 223 219 221 220 215 210 202
7 11 14 11 4 1 4 8 11 12 8 1 351 339 326 318 313 306 297 282 264 253 243 231 221 210 201 198 202 208 212 218 223 225 223 217 214 219 219 212 208 201
9 15 19 13 5 6 11 15 17 17 15 13 11 5 356 344 331 320 310 296 274 258 250 244 228 204 194 194 199 201 203 217 227 221 209 203 196 195 195 193 196 196
13 17 20 16 12 15 19 21 20 17 14 14 13 12 10 3 350 336 323 308 288 266 251 245 230 202 191 193 196 197 197 213 222 210 188 186 191 198 197 193 197 186
18 21 22 20 20 23 24 24 23 20 15 14 16 18 17 11 4 348 331 315 296 273 251 239 224 196 187 191 195 195 197 205 208 201 194 195 205 218 217 211 214 201
23 31 32 27 24 27 27 25 24 24 19 19 24 28 26 23 20 8 348 332 310 284 250 226 210 190 183 189 193 191 195 203 207 211 221 225 226 229 226 217 218 215
20 32 40 38 30 30 32 32 33 32 28 26 34 42 41 39 40 37 34 42 41 21 211 192 189 179 174 180 186 191 200 215 238 244 237 231 229 229 225 214 213 216
Height
1519 1519 1518 1518 1517 1517 1516 1515 1514 1513 1513 1513 1513 1512 1512 1511 1510 1510 1509 1509 1508 1507 1507 1507 1507 1507 1508 1509 1510 1510 1511 1512 1514 1515 1516 1518 1520 1522 1524 1526 1528 1530
1518 1517 1517 1517 1516 1516 1515 1514 1513 1512 1511 1511 1510 1509 1509 1508 1508 1508 1508 1507 1506 1505 1504 1504 1504 1505 1506 1507 1508 1508 1509 1510 1511 1513 1514 1516 1518 1520 1522 1524 1526 1528
1517 1516 1515 1515 1514 1514 1513 1512 1512 1510 1509 1508 1507 1507 1506 1505 1505 1504 1505 1505 1504 1503 1502 1502 1502 1503 1504 1505 1505 1506 1507 1508 1509 1510 1512 1514 1516 1518 1520 1522 1524 1525
1515 1515 1514 1513 1513 1512 1511 1510 1510 1508 1507 1506 1505 1505 1504 1504 1503 1502 1502 1502 1501 1500 1500 1500 1500 1501 1501 1502 1503 1503 1504 1505 1505 1507 1509 1511 1514 1516 1518 1520 1521 1523
1514 1513 1512 1512 1511 1510 1509 1508 1508 1507 1505 1504 1503 1503 1502 1502 1502 1501 1501 1500 1499 1497 1497 1497 1498 1498 1498 1499 1500 1500 1501 1503 1503 1504 1506 1509 1511 1512 1514 1516 1518 1520
1512 1511 1511 1510 1509 1508 1507 1506 1506 1505 1504 1503 1502 1501 1500 1500 1499 1499 1499 1498 1497 1495 1494 1494 1494 1495 1496 1496 1497 1498 1499 1501 1502 1502 1504 1506 1508 1510 1512 1514 1515 1517
1511 1510 1509 1508 1507 1506 1505 1504 1504 1503 1502 1501 1500 1499 1498 1496 1496 1496 1497 1498 1496 1493 1492 1492 1492 1492 1493 1493 1494 1495 1496 1498 1500 1501 1502 1504 1507 1509 1511 1512 1513 1515
1511 1510 1508 1507 1506 1505 1503 1502 1502 1501 1500 1499 1498 1497 1496 1494 1494 1494 1496 1497 1495 1492 1491 1491 1490 1490 1490 1491 1491 1492 1494 1496 1497 1499 1500 1503 1506 1508 1509 1510 1511 1513
1510 1509 1507 1505 1503 1502 1501 1500 1499 1499 1498 1497 1496 1494 1493 1493 1493 1493 1494 1495 1494 1492 1491 1490 1489 1489 1489 1489 1489 1490 1492 1494 1495 1497 1499 1501 1504 1506 1507 1508 1510 1511
1509 1507 1505 1503 1501 1500 1499 1498 1497 1496 1496 1495 1494 1493 1491 1491 1492 1492 1492 1492 1492 1492 1491 1490 1489 1488 1489 1488 1487 1488 1491 1492 1494 1496 1498 1500 1502 1504 1505 1507 1508 1509
1507 1506 1504 1502 1500 1498 1496 1495 1494 1494 1494 1493 1492 1491 1490 1490 1489 1489 1489 1489 1490 1492 1491 1490 1489 1488 1488 1488 1488 1488 1489 1491 1493 1495 1497 1498 1500 1502 1503 1505 1506 1508
1506 1505 1503 1501 1499 1497 1495 1494 1493 1492 1491 1491 1491 1490 1489 1489 1488 1487 1486 1486 1488 1490 1489 1489 1489 1489 1487 1488 1488 1488 1488 1490 1492 1493 1495 1497 1498 1500 1501 1502 1504 1506
1506 1504 1502 1500 1499 1497 1495 1494 1492 1491 1490 1489 1489 1488 1488 1487 1487 1485 1484 1485 1486 1487 1487 1487 1488 1488 1487 1487 1488 1488 1488 1489 1491 1492 1494 1495 1497 1498 1499 1500 1502 1505
1505 1503 1502 1501 1500 1498 1495 1493 1491 1490 1489 1488 1487 1486 1485 1485 1485 1484 1483 1483 1484 1485 1485 1485 1485 1486 1486 1487 1488 1488 1487 1488 1489 1491 1492 1493 1495 1497 1498 1498 1500 1503
1505 1504 1502 1502 1501 1499 1495 1492 1490 1488 1486 1486 1485 1484 1483 1483 1483 1482 1481 1481 1482 1482 1483 1483 1482 1483 1485 1486 1487 1487 1486 1488 1489 1490 1491 1492 1493 1496 1498 1498 1498 1500
1505 1504 1503 1502 1500 1498 1495 1491 1489 1486 1484 1483 1482 1481 1481 1480 1480 1480 1479 1479 1480 1480 1481 1480 1480 1482 1483 1485 1487 1486 1486 1487 1488 1489 1490 1491 1492 1494 1497 1497 1497 1499
1505 1504 1503 1502 1500 1498 1494 1491 1487 1484 1482 1480 1479 1478 1478 1478 1478 1477 1477 1476 1477 1478 1478 1479 1479 1480 1482 1484 1486 1486 1486 1487 1488 1488 1489 1490 1491 1493 1495 1496 1497 1498
1505 1504 1503 1502 1500 1498 1494 1490 1487 1483 1480 1479 1478 1477 1476 1476 1475 1475 1475 1474 1474 1475 1476 1477 1478 1479 1481 1484 1485 1486 1486 1486 1487 1488 1488 1489 1490 1492 1494 1495 1495 1497
1505 1504 1503 1502 1500 1498 1494 1490 1487 1483 1480 1478 1477 1476 1475 1474 1474 1473 1473 1473 1473 1473 1474 1475 1476 1478 1480 1483 1484 1485 1486 1486 1486 1487 1487 1488 1490 1491 1493 1494 1495 1496
1506 1505 1504 1502 1501 1498 1494 1491 1487 1484 1481 1479 1477 1476 1474 1474 1473 1473 1472 1472 1472 1473 1473 1473 1475 1477 1479 1481 1483 1484 1485 1485 1486 1486 1487 1488 1490 1491 1493 1494 1495 1494
1508 1505 1504 1503 1501 1498 1495 1491 1488 1485 1482 1480 1478 1476 1475 1473 1473 1472 1472 1472 1472 1472 1472 1472 1472 1474 1476 1479 1481 1482 1484 1484 1485 1486 1487 1488 1489 1491 1493 1495 1495 1494
1509 1507 1504 1503 1502 1499 1496 1492 1489 1486 1484 1481 1479 1477 1475 1474 1473 1472 1471 1471 1471 1471 1470 1470 1470 1471 1473 1476 1479 1481 1482 1483 1484 1486 1487 1488 1489 1491 1492 1494 1495 1494
1511 1508 1506 1505 1503 1500 1497 1494 1491 1488 1485 1482 1480 1477 1475 1474 1473 1472 1471 1470 1470 1469 1469 1468 1468 1470 1472 1475 1477 1479 1481 1483 1484 1486 1487 1487 1489 1490 1491 1492 1493 1493
1512 1510 1508 1506 1504 1501 1499 1496 1493 1491 1488 1485 1482 1479 1477 1475 1474 1472 1471 1470 1469 1469 1468 1468 1469 1470 1472 1474 1476 1479 1481 1483 1484 1485 1486 1487 1488 1489 1490 1491 1492 1493
1513 1511 1509 1508 1506 1503 1501 1498 1496 1493 1491 1488 1485 1483 1480 1478 1476 1475 1473 1472 1471 1470 1469 1468 1469 1470 1472 1475 1477 1479 1482 1482 1483 1485 1486 1487 1487 1488 1488 1490 1492 1493
1514 1513 1511 1509 1508 1506 1503 1501 1499 1496 1494 1492 1489 1486 1485 1483 1480 1479 1477 1476 1475 1474 1471 1470 1470 1471 1474 1476 1479 1481 1483 1484 1485 1486 1486 1486 1487 1487 1487 1489 1491 1493